TimePST,TemperatureF,Dew PointF,Humidity,Sea Level PressureIn,VisibilityMPH,Wind Direction,Wind SpeedMPH,Gust SpeedMPH,PrecipitationIn,Events,Conditions,WindDirDegrees,DateUTC
12:55 AM,21.0,18.0,88,30.22,10.0,Calm,Calm,-,N/A,,Clear,0,2013-02-25 08:55:00
1:55 AM,24.1,19.0,81,30.20,10.0,Calm,Calm,-,N/A,,Clear,0,2013-02-25 09:55:00
2:55 AM,25.0,19.0,78,30.18,10.0,SW,3.5,-,N/A,,Clear,230,2013-02-25 10:55:00
3:55 AM,25.0,19.9,81,30.14,7.0,ENE,4.6,-,N/A,,Mostly Cloudy,60,2013-02-25 11:55:00
4:55 AM,23.0,19.0,85,30.16,10.0,Calm,Calm,-,N/A,,Clear,0,2013-02-25 12:55:00
5:55 AM,24.1,21.0,88,30.19,10.0,SE,3.5,-,N/A,,Overcast,130,2013-02-25 13:55:00
6:55 AM,23.0,19.9,88,30.20,10.0,Calm,Calm,-,N/A,,Mostly Cloudy,0,2013-02-25 14:55:00
7:55 AM,28.9,23.0,78,30.22,10.0,West,4.6,-,N/A,,Overcast,270,2013-02-25 15:55:00
8:55 AM,34.0,26.1,73,30.23,10.0,West,13.8,19.6,0.00,Snow,Light Snow,270,2013-02-25 16:55:00
9:15 AM,32.0,28.4,87,30.18,1.8,West,13.8,-,0.00,Snow,Light Snow,270,2013-02-25 17:15:00
9:23 AM,30.2,28.4,93,30.18,0.8,West,11.5,-,0.01,Snow,Light Snow,270,2013-02-25 17:23:00
9:48 AM,30.2,28.4,93,30.19,2.0,West,9.2,-,0.03,Snow,Light Snow,270,2013-02-25 17:48:00
9:55 AM,32.0,30.0,92,30.26,6.0,West,8.1,-,0.03,Snow,Light Snow,270,2013-02-25 17:55:00
10:03 AM,30.2,30.2,100,30.19,1.8,West,10.4,-,0.00,Snow,Light Snow,260,2013-02-25 18:03:00
10:14 AM,32.0,30.2,93,30.19,2.0,West,12.7,-,0.00,Snow,Light Snow,260,2013-02-25 18:14:00
10:22 AM,32.0,30.2,93,30.18,9.0,WSW,13.8,-,0.00,,Mostly Cloudy,250,2013-02-25 18:22:00
10:55 AM,35.1,30.9,85,30.25,10.0,West,13.8,-,0.00,,Partly Cloudy,260,2013-02-25 18:55:00
11:55 AM,37.0,21.9,54,30.24,10.0,WNW,17.3,24.2,N/A,,Partly Cloudy,300,2013-02-25 19:55:00
12:55 PM,39.9,23.0,51,30.24,10.0,NNW,15.0,24.2,N/A,,Partly Cloudy,330,2013-02-25 20:55:00
1:55 PM,42.1,18.0,38,30.22,10.0,NW,18.4,23.0,N/A,,Clear,310,2013-02-25 21:55:00
2:55 PM,41.0,17.1,38,30.21,10.0,WNW,16.1,-,N/A,,Clear,300,2013-02-25 22:55:00
3:55 PM,39.9,15.1,36,30.22,10.0,NW,15.0,21.9,N/A,,Clear,320,2013-02-25 23:55:00
4:55 PM,37.9,15.1,39,30.23,10.0,NW,9.2,-,N/A,,Clear,310,2013-02-26 00:55:00
5:55 PM,33.1,16.0,50,30.24,10.0,NW,10.4,-,N/A,,Clear,310,2013-02-26 01:55:00
6:55 PM,32.0,17.1,54,30.25,10.0,NNW,11.5,-,N/A,,Clear,330,2013-02-26 02:55:00
7:55 PM,30.0,18.0,61,30.26,10.0,NNW,8.1,-,N/A,,Clear,330,2013-02-26 03:55:00
8:55 PM,28.0,18.0,66,30.27,10.0,Calm,Calm,-,N/A,,Clear,0,2013-02-26 04:55:00
9:55 PM,26.1,18.0,71,30.31,10.0,North,-9999.0,-,N/A,,Scattered Clouds,0,2013-02-26 05:55:00
10:55 PM,23.0,18.0,81,30.31,9.0,NW,3.5,-,N/A,,Clear,320,2013-02-26 06:55:00
11:55 PM,21.0,18.0,88,30.32,10.0,West,3.5,-,N/A,,Clear,270,2013-02-26 07:55:00